Weather in Pobochino

Russia / Omsk Oblast     54°11′47″N   72°40′32″E
temp.,
°C
wind,
m/s
gust,
m/s
humid.,
%
clouds,
%
prec.,
mm/h
press.,
hPa
HPBL,
m
7 may, fri
fri700:00+13wnw51243100 0.0 1011369
03:00+10nw410518 0.0 1013291
06:00+8wnw36580 0.0 1016129
09:00+12wnw46410 0.0 1017749
12:00+15wnw78280 0.0 10181328
15:00+18nw78220 0.0 10191406
18:00+18nw67222 0.0 10191289
21:00+15wnw22333 0.0 102114
8 may, sat
sat800:00+13wnw22383 0.0 102111
03:00+11wnw11420 0.0 102210
06:00+11ssw11440 0.0 102210
09:00+16ssw23312 0.0 1022387
12:00+20s33255 0.0 10211338
15:00+22sse33215 0.0 10191783
18:00+23sse332065 0.0 10182118
21:00+19sse2328100 0.0 101821
9 may, sun
sun900:00+16ese2232100 0.0 101717
03:00+15e343789 0.0 101651
06:00+14e41042100 0.0 1016185
09:00+19e6113083 0.0 1015580
12:00+23e8921100 0.0 10152364
15:00+23ese8821100 0.0 10142570
18:00+23e71023100 0.0 10132395
21:00+18ese61143100 0.0 1014754
10 may, mon
mon1000:00+15ese61257100 0.6 10141109
03:00+13e51063100 1.3 1014694
06:00+13ene5952100 1.7 1014630
09:00+13ene81143100 0.0 1014756
12:00+17ene81034100 0.0 10141685
15:00+18ene892840 0.0 10142378
18:00+17ne7831100 0.0 10152344
21:00+14nne6103990 0.0 1017424
11 may, tue
tue1100:00+11nne48495 0.0 1017181
03:00+10nne4105498 0.0 1018264
06:00+9nne485547 0.0 1019260
09:00+12nne57448 0.0 10201272
12:00+15n673396 0.0 10202418
15:00+16n662882 0.0 10192613
18:00+16n672827 0.0 10202475
21:00+13nne35394 0.0 102179